AXY303 NZAA-NZCH

Flight info

Callsign AXY303
Flight time 1h 11m
Altitude 40000
Route IGBAT H384 NP H252 NS Y288 IPRAK
Aircraft A343/H-SDE2E3FGHIJ4J5M1RWXY/LB1D1

Departure

Time 2026-05-06 03:16
Airport Auckland International Airport (NZAA)

Arrival

Time 2026-05-06 04:27
Airport Christchurch International Airport (NZCH)
Time Latitude Longitude Altitude Speed Heading
2026-05-06 02:40 -37.00716 174.77764 26 ft 0 kts 165°
2026-05-06 03:00 -37.00692 174.77758 27 ft 4 kts 179°
2026-05-06 03:01 -37.00666 174.77762 28 ft 4 kts 202°
2026-05-06 03:01 -37.00644 174.77779 27 ft 4 kts 228°
2026-05-06 03:01 -37.00629 174.77807 27 ft 4 kts 247°
2026-05-06 03:01 -37.00623 174.77826 26 ft 0 kts 250°
2026-05-06 03:06 -37.00624 174.77825 26 ft 2 kts 249°
2026-05-06 03:07 -37.00647 174.77749 27 ft 16 kts 249°
2026-05-06 03:07 -37.00695 174.77576 28 ft 22 kts 242°
2026-05-06 03:07 -37.00799 174.77519 27 ft 12 kts 150°
2026-05-06 03:07 -37.00886 174.77597 27 ft 18 kts 148°
2026-05-06 03:08 -37.01014 174.77658 26 ft 21 kts 162°
2026-05-06 03:08 -37.01127 174.77706 24 ft 15 kts 161°
2026-05-06 03:08 -37.01168 174.77697 26 ft 6 kts 215°
2026-05-06 03:08 -37.01203 174.77649 28 ft 8 kts 210°
2026-05-06 03:09 -37.01255 174.77637 29 ft 8 kts 188°
2026-05-06 03:09 -37.01294 174.77594 27 ft 10 kts 245°
2026-05-06 03:09 -37.01324 174.77498 30 ft 14 kts 252°
2026-05-06 03:09 -37.01357 174.77372 26 ft 16 kts 251°
2026-05-06 03:10 -37.01369 174.77329 27 ft 0 kts 251°
2026-05-06 03:12 -37.01373 174.77313 27 ft 6 kts 251°
2026-05-06 03:12 -37.01393 174.77244 28 ft 10 kts 250°
2026-05-06 03:12 -37.01428 174.77145 26 ft 15 kts 233°
2026-05-06 03:13 -37.01530 174.77090 31 ft 18 kts 189°
2026-05-06 03:13 -37.01640 174.77028 27 ft 18 kts 234°
2026-05-06 03:13 -37.01684 174.76852 21 ft 21 kts 271°
2026-05-06 03:13 -37.01674 174.76796 20 ft 0 kts 283°
2026-05-06 03:14 -37.01673 174.76786 20 ft 2 kts 278°
2026-05-06 03:14 -37.01673 174.76767 20 ft 4 kts 265°
2026-05-06 03:14 -37.01693 174.76732 21 ft 5 kts 216°
2026-05-06 03:14 -37.01714 174.76737 22 ft 2 kts 150°
2026-05-06 03:15 -37.01719 174.76749 22 ft 3 kts 121°
2026-05-06 03:15 -37.01711 174.76790 21 ft 8 kts 70°
2026-05-06 03:15 -37.01686 174.76882 25 ft 25 kts 70°
2026-05-06 03:15 -37.01516 174.77493 31 ft 123 kts 71°
2026-05-06 03:16 -37.01147 174.78826 173 ft 192 kts 67°
2026-05-06 03:16 -37.00655 174.80544 915 ft 229 kts 69°
2026-05-06 03:16 -37.00088 174.82602 1723 ft 267 kts 69°
2026-05-06 03:16 -36.99469 174.84838 2910 ft 274 kts 68°
2026-05-06 03:17 -36.98868 174.87016 4056 ft 256 kts 68°
2026-05-06 03:17 -36.98330 174.89128 5039 ft 258 kts 74°
2026-05-06 03:17 -36.98185 174.91387 6312 ft 265 kts 91°
2026-05-06 03:17 -36.98721 174.93628 7485 ft 277 kts 117°
2026-05-06 03:18 -37.00074 174.95364 8562 ft 288 kts 148°
2026-05-06 03:18 -37.02022 174.96035 9616 ft 296 kts 181°
2026-05-06 03:18 -37.04025 174.95434 10580 ft 303 kts 205°
2026-05-06 03:18 -37.05749 174.93822 11117 ft 320 kts 230°
2026-05-06 03:19 -37.07249 174.91690 11834 ft 331 kts 231°
2026-05-06 03:19 -37.08813 174.89530 12712 ft 338 kts 229°
2026-05-06 03:19 -37.10457 174.87391 13660 ft 343 kts 227°
2026-05-06 03:19 -37.12180 174.85281 14558 ft 349 kts 225°
2026-05-06 03:20 -37.15847 174.81204 16335 ft 356 kts 221°
2026-05-06 03:20 -37.17793 174.79251 17221 ft 360 kts 220°
2026-05-06 03:20 -37.19816 174.77366 18104 ft 364 kts 218°
2026-05-06 03:21 -37.21904 174.75572 18922 ft 369 kts 215°
2026-05-06 03:21 -37.24086 174.73855 19713 ft 372 kts 213°
2026-05-06 03:21 -37.26335 174.72247 20557 ft 373 kts 210°
2026-05-06 03:21 -37.28649 174.70759 21400 ft 374 kts 207°
2026-05-06 03:22 -37.31022 174.69405 22193 ft 376 kts 204°
2026-05-06 03:22 -37.33463 174.68195 22944 ft 379 kts 201°
2026-05-06 03:22 -37.35978 174.67141 23709 ft 382 kts 198°
2026-05-06 03:22 -37.38550 174.66268 24343 ft 385 kts 194°
2026-05-06 03:23 -37.41190 174.65593 24901 ft 389 kts 191°
2026-05-06 03:23 -37.43885 174.65145 25475 ft 392 kts 187°
2026-05-06 03:23 -37.46611 174.64953 26051 ft 395 kts 182°
2026-05-06 03:23 -37.49370 174.64953 26611 ft 397 kts 183°
2026-05-06 03:24 -37.52117 174.64571 27169 ft 397 kts 192°
2026-05-06 03:24 -37.54820 174.63838 27723 ft 399 kts 194°
2026-05-06 03:24 -37.57538 174.63109 28255 ft 401 kts 191°
2026-05-06 03:24 -37.60299 174.62504 28789 ft 403 kts 191°
2026-05-06 03:25 -37.63054 174.61829 29327 ft 404 kts 193°
2026-05-06 03:25 -37.65814 174.61077 29835 ft 406 kts 193°
2026-05-06 03:25 -37.68572 174.60276 30321 ft 408 kts 194°
2026-05-06 03:25 -37.71347 174.59443 30734 ft 411 kts 194°
2026-05-06 03:26 -37.74129 174.58593 31104 ft 413 kts 194°
2026-05-06 03:26 -37.76934 174.57726 31464 ft 416 kts 195°
2026-05-06 03:26 -37.79752 174.56851 31829 ft 418 kts 195°
2026-05-06 03:26 -37.82577 174.55970 32254 ft 419 kts 195°
2026-05-06 03:27 -37.85403 174.55088 32767 ft 417 kts 195°
2026-05-06 03:27 -37.88215 174.54208 33249 ft 416 kts 195°
2026-05-06 03:27 -37.91025 174.53328 33736 ft 415 kts 195°
2026-05-06 03:27 -37.93821 174.52451 34210 ft 414 kts 195°
2026-05-06 03:28 -37.96617 174.51574 34629 ft 413 kts 196°
2026-05-06 03:28 -37.99408 174.50701 34976 ft 413 kts 195°
2026-05-06 03:28 -38.02208 174.49827 35305 ft 414 kts 196°
2026-05-06 03:28 -38.05005 174.48950 35622 ft 415 kts 196°
2026-05-06 03:29 -38.07813 174.48067 35951 ft 416 kts 196°
2026-05-06 03:29 -38.10620 174.47182 36250 ft 417 kts 196°
2026-05-06 03:29 -38.13439 174.46293 36560 ft 417 kts 196°
2026-05-06 03:29 -38.16256 174.45404 36888 ft 418 kts 196°
2026-05-06 03:30 -38.19082 174.44511 37196 ft 418 kts 196°
2026-05-06 03:30 -38.21867 174.43631 37506 ft 419 kts 196°
2026-05-06 03:30 -38.24693 174.42737 37825 ft 419 kts 196°
2026-05-06 03:30 -38.27528 174.41840 38124 ft 420 kts 196°
2026-05-06 03:31 -38.30359 174.40943 38426 ft 420 kts 196°
2026-05-06 03:31 -38.33200 174.40042 38722 ft 421 kts 196°
2026-05-06 03:31 -38.36039 174.39141 39016 ft 421 kts 196°
2026-05-06 03:31 -38.38886 174.38237 39254 ft 421 kts 196°
2026-05-06 03:32 -38.41733 174.37333 39485 ft 422 kts 196°
2026-05-06 03:32 -38.44577 174.36428 39708 ft 422 kts 197°
2026-05-06 03:32 -38.47429 174.35520 39926 ft 423 kts 197°
2026-05-06 03:32 -38.50286 174.34610 40142 ft 423 kts 197°
2026-05-06 03:33 -38.53138 174.33700 40325 ft 425 kts 197°
2026-05-06 03:33 -38.56011 174.32783 40365 ft 424 kts 197°
2026-05-06 03:33 -38.61680 174.30974 40369 ft 418 kts 197°
2026-05-06 03:34 -38.67314 174.29172 40364 ft 417 kts 197°
2026-05-06 03:34 -38.72948 174.27365 40365 ft 417 kts 197°
2026-05-06 03:35 -38.78574 174.25559 40363 ft 417 kts 197°
2026-05-06 03:35 -38.84219 174.23745 40371 ft 418 kts 197°
2026-05-06 03:36 -38.89861 174.21929 40375 ft 418 kts 197°
2026-05-06 03:36 -38.95501 174.20110 40372 ft 418 kts 197°
2026-05-06 03:37 -39.01147 174.18288 40366 ft 418 kts 197°
2026-05-06 03:37 -39.06711 174.16182 40365 ft 417 kts 201°
2026-05-06 03:38 -39.12224 174.13825 40366 ft 417 kts 201°
2026-05-06 03:38 -39.17735 174.11496 40363 ft 417 kts 201°
2026-05-06 03:39 -39.23268 174.09212 40359 ft 417 kts 200°
2026-05-06 03:39 -39.28797 174.06947 40358 ft 417 kts 200°
2026-05-06 03:40 -39.34325 174.04681 40353 ft 417 kts 200°
2026-05-06 03:40 -39.39855 174.02407 40351 ft 417 kts 200°
2026-05-06 03:41 -39.45349 174.00144 40350 ft 417 kts 200°
2026-05-06 03:41 -39.50888 173.97861 40348 ft 418 kts 200°
2026-05-06 03:42 -39.56461 173.95557 40343 ft 418 kts 200°
2026-05-06 03:42 -39.61959 173.93278 40342 ft 418 kts 201°
2026-05-06 03:43 -39.67495 173.90981 40337 ft 418 kts 201°
2026-05-06 03:43 -39.73038 173.88678 40339 ft 419 kts 201°
2026-05-06 03:44 -39.78594 173.86365 40338 ft 420 kts 201°
2026-05-06 03:44 -39.84158 173.84047 40338 ft 420 kts 201°
2026-05-06 03:45 -39.89719 173.81729 40341 ft 420 kts 201°
2026-05-06 03:45 -39.95274 173.79407 40337 ft 419 kts 201°
2026-05-06 03:46 -40.00827 173.77078 40334 ft 419 kts 201°
2026-05-06 03:46 -40.06387 173.74743 40335 ft 419 kts 201°
2026-05-06 03:47 -40.11944 173.72407 40338 ft 420 kts 201°
2026-05-06 03:47 -40.17507 173.70064 40336 ft 420 kts 201°
2026-05-06 03:48 -40.23072 173.67718 40333 ft 420 kts 201°
2026-05-06 03:48 -40.28642 173.65365 40333 ft 420 kts 201°
2026-05-06 03:49 -40.34199 173.63014 40328 ft 420 kts 201°
2026-05-06 03:49 -40.39766 173.60657 40326 ft 421 kts 201°
2026-05-06 03:50 -40.45338 173.58289 40329 ft 421 kts 201°
2026-05-06 03:50 -40.50870 173.55933 40325 ft 421 kts 201°
2026-05-06 03:51 -40.56439 173.53559 40322 ft 421 kts 201°
2026-05-06 03:51 -40.62013 173.51180 40321 ft 422 kts 201°
2026-05-06 03:52 -40.67606 173.48790 40321 ft 423 kts 201°
2026-05-06 03:52 -40.73204 173.46396 40325 ft 423 kts 201°
2026-05-06 03:53 -40.78237 173.44234 40322 ft 423 kts 201°
2026-05-06 03:53 -40.83839 173.41828 40319 ft 423 kts 201°
2026-05-06 03:54 -40.89774 173.39279 40319 ft 423 kts 201°
2026-05-06 03:54 -40.95373 173.36858 40324 ft 423 kts 201°
2026-05-06 03:55 -41.01017 173.34416 40314 ft 424 kts 201°
2026-05-06 03:55 -41.06602 173.31997 40314 ft 425 kts 201°
2026-05-06 03:56 -41.12214 173.29564 40309 ft 425 kts 201°
2026-05-06 03:56 -41.17831 173.27124 40307 ft 425 kts 201°
2026-05-06 03:57 -41.23449 173.24679 40306 ft 425 kts 201°
2026-05-06 03:57 -41.29059 173.22233 40303 ft 425 kts 201°
2026-05-06 03:58 -41.34714 173.19920 40303 ft 426 kts 199°
2026-05-06 03:58 -41.40415 173.17778 40300 ft 426 kts 199°
2026-05-06 03:59 -41.46109 173.15610 40310 ft 425 kts 199°
2026-05-06 03:59 -41.51803 173.13426 40302 ft 426 kts 199°
2026-05-06 04:00 -41.57496 173.11234 40308 ft 426 kts 199°
2026-05-06 04:00 -41.63190 173.09037 40297 ft 426 kts 199°
2026-05-06 04:01 -41.68884 173.06836 40286 ft 426 kts 199°
2026-05-06 04:01 -41.74588 173.04627 40283 ft 427 kts 199°
2026-05-06 04:02 -41.80289 173.02414 40280 ft 426 kts 199°
2026-05-06 04:02 -41.85974 173.00204 40280 ft 425 kts 199°
2026-05-06 04:03 -41.91651 172.97993 40273 ft 425 kts 199°
2026-05-06 04:03 -41.94440 172.96906 40083 ft 422 kts 199°
2026-05-06 04:03 -41.97271 172.95800 39464 ft 426 kts 199°
2026-05-06 04:04 -42.00136 172.94679 38798 ft 431 kts 198°
2026-05-06 04:04 -42.03033 172.93546 38050 ft 435 kts 199°
2026-05-06 04:04 -42.05942 172.92407 37315 ft 437 kts 200°
2026-05-06 04:04 -42.08866 172.91257 36607 ft 439 kts 200°
2026-05-06 04:05 -42.11802 172.90102 35952 ft 439 kts 201°
2026-05-06 04:05 -42.14731 172.88950 35324 ft 439 kts 201°
2026-05-06 04:05 -42.17659 172.87800 34716 ft 438 kts 202°
2026-05-06 04:05 -42.20582 172.86650 34112 ft 436 kts 202°
2026-05-06 04:06 -42.23487 172.85506 33380 ft 435 kts 202°
2026-05-06 04:06 -42.26400 172.84355 32521 ft 438 kts 202°
2026-05-06 04:06 -42.29337 172.83193 31616 ft 441 kts 202°
2026-05-06 04:06 -42.32287 172.82026 30737 ft 444 kts 202°
2026-05-06 04:07 -42.35262 172.80850 29876 ft 445 kts 202°
2026-05-06 04:07 -42.38239 172.79672 28986 ft 446 kts 201°
2026-05-06 04:07 -42.41209 172.78498 27965 ft 441 kts 201°
2026-05-06 04:07 -42.44141 172.77338 26711 ft 440 kts 201°
2026-05-06 04:08 -42.47075 172.76173 25510 ft 441 kts 200°
2026-05-06 04:08 -42.50025 172.74999 24738 ft 442 kts 200°
2026-05-06 04:08 -42.52966 172.73831 24086 ft 438 kts 200°
2026-05-06 04:08 -42.55884 172.72671 23339 ft 437 kts 200°
2026-05-06 04:09 -42.58793 172.71512 22634 ft 433 kts 199°
2026-05-06 04:09 -42.61672 172.70364 21989 ft 428 kts 199°
2026-05-06 04:09 -42.64490 172.69242 20938 ft 418 kts 199°
2026-05-06 04:09 -42.67260 172.68135 19685 ft 414 kts 199°
2026-05-06 04:10 -42.70002 172.67038 18766 ft 405 kts 199°
2026-05-06 04:10 -42.72619 172.65995 18577 ft 380 kts 199°
2026-05-06 04:10 -42.75112 172.64998 18491 ft 366 kts 199°
2026-05-06 04:10 -42.77480 172.64051 18329 ft 354 kts 199°
2026-05-06 04:11 -42.79846 172.63098 17671 ft 358 kts 200°
2026-05-06 04:11 -42.82272 172.62117 16783 ft 369 kts 199°
2026-05-06 04:11 -42.84753 172.61118 16016 ft 374 kts 199°
2026-05-06 04:11 -42.87259 172.60106 15354 ft 376 kts 199°
2026-05-06 04:12 -42.89760 172.59087 14744 ft 375 kts 199°
2026-05-06 04:12 -42.92262 172.58068 14162 ft 374 kts 199°
2026-05-06 04:12 -42.94743 172.57057 13552 ft 371 kts 199°
2026-05-06 04:12 -42.97209 172.56052 12935 ft 369 kts 199°
2026-05-06 04:13 -42.99661 172.55052 12370 ft 366 kts 199°
2026-05-06 04:13 -43.01271 172.54395 12009 ft 363 kts 199°
2026-05-06 04:13 -43.03673 172.53414 11583 ft 356 kts 199°
2026-05-06 04:13 -43.06005 172.52464 11373 ft 343 kts 199°
2026-05-06 04:14 -43.08247 172.51550 11202 ft 330 kts 199°
2026-05-06 04:14 -43.10415 172.50673 11043 ft 319 kts 199°
2026-05-06 04:14 -43.12500 172.49817 10874 ft 308 kts 199°
2026-05-06 04:14 -43.14528 172.48982 10690 ft 300 kts 199°
2026-05-06 04:15 -43.16511 172.48165 10429 ft 296 kts 199°
2026-05-06 04:15 -43.18469 172.47359 10131 ft 293 kts 199°
2026-05-06 04:15 -43.20408 172.46561 9848 ft 288 kts 199°
2026-05-06 04:15 -43.22320 172.45776 9487 ft 286 kts 200°
2026-05-06 04:16 -43.24220 172.44994 9129 ft 284 kts 200°
2026-05-06 04:16 -43.26115 172.44218 8757 ft 283 kts 200°
2026-05-06 04:16 -43.27998 172.43453 8388 ft 282 kts 201°
2026-05-06 04:16 -43.29865 172.42680 8032 ft 280 kts 201°
2026-05-06 04:17 -43.31726 172.41909 7684 ft 278 kts 202°
2026-05-06 04:17 -43.33574 172.41145 7326 ft 277 kts 202°
2026-05-06 04:17 -43.35419 172.40381 6924 ft 277 kts 203°
2026-05-06 04:17 -43.37263 172.39617 6508 ft 278 kts 204°
2026-05-06 04:18 -43.39110 172.38853 6147 ft 275 kts 202°
2026-05-06 04:18 -43.40921 172.38123 5666 ft 268 kts 200°
2026-05-06 04:18 -43.42698 172.37535 4799 ft 265 kts 197°
2026-05-06 04:18 -43.44501 172.36980 3875 ft 267 kts 196°
2026-05-06 04:19 -43.46326 172.36409 3285 ft 270 kts 195°
2026-05-06 04:19 -43.48139 172.35835 3036 ft 263 kts 195°
2026-05-06 04:19 -43.49870 172.35285 3003 ft 248 kts 195°
2026-05-06 04:19 -43.51495 172.34766 3007 ft 232 kts 195°
2026-05-06 04:20 -43.53017 172.34276 3009 ft 218 kts 196°
2026-05-06 04:20 -43.54460 172.33831 2974 ft 208 kts 193°
2026-05-06 04:20 -43.55866 172.34048 2841 ft 206 kts 154°
2026-05-06 04:20 -43.56920 172.35318 2778 ft 198 kts 131°
2026-05-06 04:21 -43.57788 172.36748 2685 ft 191 kts 129°
2026-05-06 04:21 -43.58623 172.38144 2465 ft 188 kts 130°
2026-05-06 04:21 -43.59455 172.39519 2204 ft 185 kts 129°
2026-05-06 04:21 -43.60274 172.40857 1926 ft 183 kts 129°
2026-05-06 04:22 -43.61018 172.42277 1629 ft 181 kts 112°
2026-05-06 04:22 -43.61150 172.43373 1605 ft 179 kts 84°
2026-05-06 04:22 -43.61065 172.43966 1601 ft 176 kts 69°
2026-05-06 04:23 -43.60666 172.44892 1593 ft 167 kts 45°
2026-05-06 04:23 -43.60364 172.45255 1555 ft 165 kts 33°
2026-05-06 04:23 -43.60018 172.45524 1499 ft 164 kts 22°
2026-05-06 04:23 -43.59651 172.45695 1436 ft 165 kts 13°
2026-05-06 04:24 -43.59257 172.45773 1366 ft 166 kts
2026-05-06 04:24 -43.58712 172.45723 1308 ft 166 kts 349°
2026-05-06 04:24 -43.57667 172.45062 1377 ft 168 kts 325°
2026-05-06 04:24 -43.56555 172.44592 1575 ft 174 kts
2026-05-06 04:25 -43.55467 172.45274 1611 ft 178 kts 40°
2026-05-06 04:25 -43.54620 172.46515 1430 ft 176 kts 44°
2026-05-06 04:25 -43.53741 172.47648 1190 ft 174 kts 37°
2026-05-06 04:25 -43.52825 172.48641 950 ft 159 kts 38°
2026-05-06 04:26 -43.52030 172.49587 748 ft 143 kts 38°
2026-05-06 04:26 -43.51302 172.50430 571 ft 131 kts 39°
2026-05-06 04:26 -43.50616 172.51225 396 ft 127 kts 39°
2026-05-06 04:26 -43.49954 172.51993 250 ft 123 kts 39°
2026-05-06 04:27 -43.49297 172.52752 134 ft 119 kts 39°
2026-05-06 04:27 -43.48750 172.53375 114 ft 69 kts 40°
2026-05-06 04:27 -43.48597 172.53552 115 ft 5 kts 40°
2026-05-06 04:27 -43.48537 172.53627 112 ft 17 kts 49°
2026-05-06 04:28 -43.48482 172.53804 112 ft 22 kts 70°
2026-05-06 04:28 -43.48461 172.53953 110 ft 15 kts 104°
2026-05-06 04:28 -43.48470 172.53980 109 ft 0 kts 117°
2026-05-06 04:29 -43.48470 172.53981 109 ft 0 kts 117°
2026-05-06 04:29 -43.48475 172.53994 109 ft 3 kts 118°
2026-05-06 04:29 -43.48493 172.54034 107 ft 6 kts 123°
2026-05-06 04:30 -43.48525 172.54094 109 ft 11 kts 128°
2026-05-06 04:30 -43.48584 172.54196 110 ft 16 kts 129°
2026-05-06 04:30 -43.48636 172.54280 110 ft 6 kts 131°
2026-05-06 04:30 -43.48659 172.54316 109 ft 7 kts 131°
2026-05-06 04:31 -43.48700 172.54391 107 ft 12 kts 131°
2026-05-06 04:31 -43.48679 172.54493 109 ft 9 kts 53°
2026-05-06 04:31 -43.48689 172.54538 108 ft 6 kts 138°
2026-05-06 04:31 -43.48726 172.54527 106 ft 2 kts 234°
2026-05-06 04:32 -43.48726 172.54525 106 ft 0 kts 245°